Regional Weather Roundup
Issued by NWS

Home | Current Version | Previous Version | Graphics & Text | Print | Product List | Glossary On
Versions: 1 2 3 4 5 6 7 8 9 10 11 12 13 14 15 16 17 18 19 20 21 22 23 24 25 26 27 28 29 30 31 32 33 34 35 36 37 38 39 40 41 42 43 44 45 46 47 48 49 50
000
ASUS43 KDTX 280910
RWRMI
MICHIGAN HOURLY REGIONAL WEATHER ROUNDUP
NATIONAL WEATHER SERVICE DETROIT/PONTIAC MI
500 AM EDT FRI APR 28 2017

NOTE: "FAIR" INDICATES FEW OR NO CLOUDS BELOW 12,000 FEET WITH NO
SIGNIFICANT WEATHER AND/OR OBSTRUCTION TO VISIBILITY.

MIZ047>049-052>055-059>063-066>070-074>076-081>083-281000-
SOUTHEAST LOWER MICHIGAN

CITY           SKY/WX    TMP DP  RH WIND       PRES   REMARKS
ADRIAN         CLEAR     44  38  79 W5        29.94R
ALMA           CLOUDY    44  35  70 SW12G22   29.88R
ANN ARBOR      CLEAR     40  36  86 SW3       29.91R
BAD AXE        CLOUDY    46  36  68 W10G22    29.86R
CARO           CLOUDY    46  36  68 SW9       29.87R
DETROIT CITY   PTCLDY    48  37  65 SW8       29.91R
DETROIT        MOCLDY    47  37  68 SW8       29.92R
FLINT          CLOUDY    47  35  63 W16G31    29.90R
GROSSE ILE     PTCLDY    46  38  72 SW5       29.92R
HILLSDALE      PTCLDY    43  36  75 SW3       29.91R
HOWELL         CLOUDY    46  34  65 W12G18    29.91R

CITY           SKY/WX    TMP DP  RH WIND       PRES   REMARKS
JACKSON        CLOUDY    43  37  79 W5        29.91R
LAMBERTVILLE   CLOUDY    46  38  74 SW6       29.94R
LANSING        CLOUDY    45  33  63 W12       29.90R
LAPEER         CLOUDY    48  35  62 W15G25    29.89R
MASON          CLOUDY    45  36  70 W6        29.91R
MONROE         PTCLDY    45  38  77 SW3       29.92R
MT. CLEMENS    CLEAR     47  38  68 SW6       29.89R
PONTIAC        MOCLDY    47  35  63 W20G26    29.89R
PORT HOPE        N/A     47  37  68 SW8       29.83R
PORT HURON     CLOUDY    48  36  61 S6        29.89R
TRI CITIES     CLOUDY    45  35  68 SW15G29   29.87R
MIDLAND        CLOUDY    45  33  63 W13G18    29.85R
TROY           PTCLDY    49  34  55 W8G21     29.91R
SAGINAW HB     CLOUDY    45  32  61 SW16G23   29.87R
$$
MIZ043>046-050>051-056>058-064>065-071>073-077>080-281000-
SOUTHWEST LOWER MICHIGAN

CITY           SKY/WX    TMP DP  RH WIND       PRES   REMARKS
BATTLE CREEK   CLOUDY    44  36  73 SW7       29.91R
BENTON HARBOR  PTCLDY    40  36  86 CALM      29.90R
BIG RAPIDS     CLOUDY    40  32  73 SW7       29.83R
COLDWATER      PTCLDY    41  36  82 SW3       29.92R
FREMONT        CLOUDY    41  35  79 SW8       29.84S
HOLLAND        CLOUDY    45  36  70 SW13      29.89R
GRAND RAPIDS   CLOUDY    44  37  76 SW14      29.88R
IONIA          CLOUDY    45  35  67 SW15      29.88R
KALAMAZOO      CLOUDY    42  35  76 SW5       29.91R
LUDINGTON      CLOUDY    40  35  83 W12G22    29.83R WCI  33
MARSHALL       CLOUDY    42  38  87 CALM      29.91R
MOUNT PLEASANT CLOUDY    43  32  65 SW20      29.85R
MUSKEGON       MOCLDY    43  37  79 SW10      29.87R
SOUTH HAVEN    PTCLDY    44  37  75 SW3       29.90R
$$
MIZ016>042-281000-
NORTHERN LOWER MICHIGAN

CITY           SKY/WX    TMP DP  RH WIND       PRES   REMARKS
ALPENA         LGT RAIN  44  38  79 W8        29.78R
BEAVER ISLAND  CLOUDY    37  30  78 W15G28    29.76R WCI  27
BELLAIRE       CLOUDY    39  36  89 SW6       29.79R WCI  35
CADILLAC       CLOUDY    38  33  81 SW13G21   29.78R WCI  31
CHARLEVOIX     CLOUDY    37  37 100 W12G17    29.80R FOG     WCI  29
FRANKFORT      CLOUDY    38  35  89 SW9       29.80S FOG     WCI  31
GAYLORD        LGT RAIN  40  35  83 W10       29.75R WCI  33
GRAYLING       LGT RAIN  39  35  85 SW13G24   29.78R WCI  31
HARBOR SPRINGS CLOUDY    36  35  99 W7        29.76S FOG     WCI  30
HOUGHTON LAKE  CLOUDY    40  34  79 SW16G25   29.80R WCI  31
MANISTEE       CLOUDY    40  34  79 W14       29.82R WCI  32
OSCODA         CLOUDY    44  35  69 SW14      29.82R
PELLSTON       CLOUDY    37  32  82 W15       29.77R WCI  28
ROGERS CITY    CLOUDY    42  37  81 SW7       29.77R
TRAVERSE CITY  LGT RAIN  40  37  89 W9        29.78R WCI  34
$$
MIZ007>008-015-281000-
EASTERN UPPER MICHIGAN

CITY           SKY/WX    TMP DP  RH WIND       PRES   REMARKS
KINROSS        LGT RAIN  35  32  88 W8        29.73R WCI  29
MACKINAC ISLAN CLOUDY    37  32  83 SW17G26   29.75R WCI  27
NEWBERRY       CLOUDY    32  30  91 SW8       29.72R WCI  25
S. S. MARIE    CLOUDY    36  32  85 W7        29.72R WCI  30
MUNISING         N/A     32  27  81 SW5       29.72R WCI  27
$$
MIZ004>006-011>014-085-281000-
CENTRAL UPPER MICHIGAN

CITY           SKY/WX    TMP DP  RH WIND       PRES   REMARKS
MANISTIQUE     CLOUDY    32  31  98 W3        29.74R
ESCANABA       MIX PCPN  32  29  88 W5        29.76R WCI  27
MENOMINEE      CLOUDY    34  31  88 W8        29.79R WCI  27
SAWYER-GWINN   CLOUDY    29  25  83 SW9       29.70R WCI  21
$$
MIZ001>003-009>011-084-281000-
WESTERN UPPER MICHIGAN

CITY           SKY/WX    TMP DP  RH WIND       PRES   REMARKS
IRON MOUNTAIN  CLOUDY    30  23  75 SW7       29.71R WCI  23
HOUGHTON       MIX PCPN  30  25  81 SW12      29.62R WCI  20
COPPER HARBOR    N/A     31  27  85 VRB5      29.63R WCI  26
IRONWOOD       CLOUDY    27  25  92 SW14      29.70R WCI  16
$$

ABBREVIATIONS USED IN REMARKS
   TC - TEMPERATURE IN CELSIUS
  WCI - WIND CHILL INDEX
   HX - HEAT INDEX
  VSB - VISIBILITY




USA.gov is the U.S. government's official web portal to all federal, state and local government web resources and services.